EW8829 Weather Reports


time (UTC)temp
C
wind
direction
speed
KPH
gust
KPH
rain 1hr
cm
rain 24hr
cm
rain mn
cm
humidity
%
barometer
mb
20260906012750 15 85 1.6 3.2 0.00 0.00 0.00 99 1013.1
20260906012245 15 65 1.6 1.6 0.00 0.00 0.00 99 1012.9
20260906011740 15 52 0.0 1.6 0.00 0.00 0.00 99 1013.2
20260906011240 16 54 1.6 3.2 0.00 0.00 0.00 99 1013.3
20260906010735 16 34 0.0 1.6 0.00 0.00 0.00 99 1013.0
20260906010232 16 96 1.6 3.2 0.00 0.00 0.00 99 1013.0
20260906005727 16 33 1.6 1.6 0.00 0.00 0.00 99 1013.0
20260906005226 16 344 0.0 1.6 0.00 0.00 0.00 99 1013.2
20260906004725 16 30 0.0 1.6 0.00 0.00 0.00 98 1013.0
20260906004220 16 38 0.0 1.6 0.00 0.00 0.00 98 1012.9
20260906003715 16 44 0.0 1.6 0.00 0.00 0.00 98 1012.6
20260906003211 16 76 1.6 1.6 0.00 0.00 0.00 97 1012.6
20260906002711 16 53 1.6 1.6 0.00 0.00 0.00 97 1012.7
20260906002201 16 45 1.6 1.6 0.00 0.00 0.00 97 1012.5
20260906001656 16 29 0.0 3.2 0.00 0.00 0.00 96 1012.7
20260906001155 17 321 1.6 1.6 0.00 0.00 0.00 96 1012.7
20260906000651 17 89 0.0 1.6 0.00 0.00 0.00 95 1012.7
20260906000146 17 37 0.0 0.0 0.00 0.00 0.00 95 1012.6
20260905235645 17 39 0.0 1.6 0.00 0.00 0.00 94 1012.6
20260905235140 17 80 1.6 3.2 0.00 0.00 0.00 94 1012.3
20260905234635 17 316 1.6 3.2 0.00 0.00 0.00 93 1012.6
20260905234132 17 13 0.0 3.2 0.00 0.00 0.00 92 1012.4
20260905233631 18 79 3.2 3.2 0.00 0.00 0.00 91 1012.7
20260905233125 18 50 0.0 1.6 0.00 0.00 0.00 90 1012.6
20260905232621 18 95 1.6 1.6 0.00 0.00 0.00 90 1012.5
20260905232117 18 44 0.0 0.0 0.00 0.00 0.00 88 1012.6
20260905231617 19 13 1.6 3.2 0.00 0.00 0.00 85 1012.5
20260905231113 20 0 3.2 3.2 0.00 0.00 0.00 83 1012.3
20260905230609 20 20 3.2 4.8 0.00 0.00 0.00 82 1012.3
20260905230106 20 22 4.8 4.8 0.00 0.00 0.00 81 1012.3
20260905225600 20 11 3.2 3.2 0.00 0.00 0.00 81 1012.3
20260905225055 20 13 0.0 3.2 0.00 0.00 0.00 82 1012.3
20260905224555 20 12 3.2 3.2 0.00 0.00 0.00 80 1012.5
20260905224055 21 16 1.6 3.2 0.00 0.00 0.00 78 1012.4
20260905223552 21 22 3.2 3.2 0.00 0.00 0.00 79 1012.3
20260905223048 21 21 1.6 3.2 0.00 0.00 0.00 77 1012.4
20260905222548 21 16 3.2 4.8 0.00 0.00 0.00 77 1012.1
20260905222043 21 320 0.0 3.2 0.00 0.00 0.00 79 1012.2
20260905221540 21 30 0.0 3.2 0.00 0.00 0.00 75 1012.2
20260905221036 21 19 1.6 4.8 0.00 0.00 0.00 75 1012.0
20260905220531 22 15 4.8 4.8 0.00 0.00 0.00 72 1012.1
20260905220027 22 26 3.2 4.8 0.00 0.00 0.00 73 1012.2
20260905215526 22 50 0.0 3.2 0.00 0.00 0.00 70 1011.9
20260905215023 22 26 1.6 3.2 0.00 0.00 0.00 70 1011.9
20260905214518 22 10 3.2 3.2 0.00 0.00 0.00 71 1012.0
20260905214013 22 355 3.2 4.8 0.00 0.00 0.00 72 1011.8
20260905213509 22 0 3.2 4.8 0.00 0.00 0.00 73 1011.8
20260905213004 22 11 3.2 4.8 0.00 0.00 0.00 70 1011.8
20260905212459 22 17 3.2 3.2 0.00 0.00 0.00 71 1011.7
20260905211958 22 50 0.0 4.8 0.00 0.00 0.00 72 1011.8
20260905211454 22 355 3.2 3.2 0.00 0.00 0.00 75 1011.8
20260905210950 22 344 3.2 3.2 0.00 0.00 0.00 70 1011.4
20260905210445 22 18 4.8 6.4 0.00 0.00 0.00 75 1011.5
20260905205944 22 47 1.6 4.8 0.00 0.00 0.00 74 1011.5
20260905205439 22 135 4.8 8.0 0.00 0.00 0.00 74 1011.6
20260905204938 22 40 1.6 3.2 0.00 0.00 0.00 75 1011.7
20260905204434 21 15 3.2 3.2 0.00 0.00 0.00 74 1011.6
20260905203933 21 7 3.2 4.8 0.00 0.00 0.00 73 1011.4
20260905203429 22 0 4.8 4.8 0.00 0.00 0.00 71 1011.5
20260905202924 22 353 6.4 6.4 0.00 0.00 0.00 72 1011.4
20260905202419 23 34 1.6 3.2 0.00 0.00 0.00 70 1011.6
20260905201915 23 348 3.2 4.8 0.00 0.00 0.00 68 1011.4
20260905201409 23 7 3.2 6.4 0.00 0.00 0.00 66 1011.6
20260905200904 23 6 6.4 6.4 0.00 0.00 0.00 67 1011.5
20260905200400 23 41 3.2 3.2 0.00 0.00 0.00 73 1011.6
20260905195857 22 36 1.6 4.8 0.00 0.00 0.00 72 1011.6
20260905195353 22 13 1.6 3.2 0.00 0.00 0.00 73 1011.5
20260905194849 22 266 1.6 3.2 0.00 0.00 0.00 73 1011.6
20260905194348 22 20 1.6 3.2 0.00 0.00 0.00 76 1011.7
20260905193847 21 13 1.6 3.2 0.00 0.00 0.00 76 1011.6
20260905193342 22 337 3.2 4.8 0.00 0.00 0.00 73 1011.5
20260905192838 22 29 1.6 6.4 0.00 0.00 0.00 72 1011.6
20260905192334 23 106 1.6 4.8 0.00 0.00 0.00 67 1011.6
20260905191833 23 311 3.2 4.8 0.00 0.00 0.00 68 1011.4
20260905191332 23 130 4.8 11.3 0.00 0.00 0.00 68 1011.6
20260905190831 22 69 1.6 3.2 0.00 0.00 0.00 72 1011.7
20260905190325 22 18 1.6 3.2 0.00 0.00 0.00 74 1011.7
20260905185823 22 48 3.2 3.2 0.00 0.00 0.00 74 1011.6
20260905185319 22 23 4.8 6.4 0.00 0.00 0.00 73 1011.7
20260905184812 22 328 6.4 6.4 0.00 0.00 0.00 76 1011.8
20260905184311 22 312 4.8 4.8 0.00 0.00 0.00 76 1011.7
20260905183810 22 1 1.6 4.8 0.00 0.00 0.00 70 1011.6
20260905183306 22 73 3.2 3.2 0.00 0.00 0.00 71 1011.8
20260905182800 22 52 3.2 4.8 0.00 0.00 0.00 70 1011.6
20260905182300 22 26 3.2 3.2 0.00 0.00 0.00 70 1011.6
20260905181755 22 26 3.2 4.8 0.00 0.00 0.00 71 1011.6
20260905181254 22 50 3.2 6.4 0.00 0.00 0.00 71 1011.7
20260905180748 22 26 3.2 6.4 0.00 0.00 0.00 71 1011.6
20260905180243 22 10 1.6 4.8 0.00 0.00 0.00 72 1011.7
20260905175739 22 9 4.8 4.8 0.00 0.00 0.00 72 1011.6
20260905175233 22 347 3.2 4.8 0.00 0.00 0.00 72 1011.7
20260905174728 22 12 3.2 4.8 0.00 0.00 0.00 71 1011.7
20260905174224 22 31 3.2 3.2 0.00 0.00 0.00 71 1011.8
20260905173720 22 22 3.2 3.2 0.00 0.00 0.00 69 1011.6
20260905173215 22 0 0.0 3.2 0.00 0.00 0.00 68 1011.7
20260905172709 22 351 3.2 4.8 0.00 0.00 0.00 71 1011.6
20260905172203 22 323 3.2 6.4 0.00 0.00 0.00 71 1011.8
20260905171659 23 24 6.4 9.7 0.00 0.00 0.00 68 1011.7
20260905171155 23 35 1.6 4.8 0.00 0.00 0.00 66 1011.8
20260905170652 22 19 3.2 3.2 0.00 0.00 0.00 70 1012.0
20260905170147 21 16 1.6 3.2 0.00 0.00 0.00 72 1011.9
20260905165646 21 10 3.2 6.4 0.00 0.00 0.00 71 1011.8
20260905165142 22 4 3.2 3.2 0.00 0.00 0.00 69 1011.7
20260905164637 22 5 4.8 6.4 0.00 0.00 0.00 71 1012.1
20260905164136 23 17 0.0 4.8 0.00 0.00 0.00 67 1011.9
20260905163632 23 117 4.8 6.4 0.00 0.00 0.00 72 1011.9
20260905163128 22 348 3.2 3.2 0.00 0.00 0.00 71 1011.9
20260905162624 22 49 3.2 4.8 0.00 0.00 0.00 75 1012.0
20260905162123 21 22 3.2 6.4 0.00 0.00 0.00 75 1012.0
20260905161623 21 356 3.2 3.2 0.00 0.00 0.00 79 1011.9
20260905161121 21 12 3.2 3.2 0.00 0.00 0.00 74 1012.0
20260905160621 21 72 3.2 3.2 0.00 0.00 0.00 75 1012.0
20260905160115 21 32 0.0 3.2 0.00 0.00 0.00 72 1012.0
20260905155609 22 127 4.8 6.4 0.00 0.00 0.00 73 1012.0
20260905155108 21 38 3.2 3.2 0.00 0.00 0.00 74 1012.0
20260905154608 20 5 4.8 4.8 0.00 0.00 0.00 76 1012.2
20260905154104 20 350 3.2 4.8 0.00 0.00 0.00 76 1012.1
20260905153600 20 120 3.2 4.8 0.00 0.00 0.00 80 1012.1
20260905153059 21 359 4.8 4.8 0.00 0.00 0.00 76 1012.1
20260905152554 20 16 3.2 3.2 0.00 0.00 0.00 80 1012.3
20260905152049 21 71 0.0 3.2 0.00 0.00 0.00 78 1012.2
20260905151545 21 13 4.8 6.4 0.00 0.00 0.00 75 1012.0
20260905151040 21 93 1.6 4.8 0.00 0.00 0.00 76 1012.0
20260905150535 21 109 4.8 6.4 0.00 0.00 0.00 77 1012.2
20260905150033 20 76 4.8 6.4 0.00 0.00 0.00 78 1012.1
20260905145527 20 91 3.2 4.8 0.00 0.00 0.00 79 1012.4
20260905145026 20 55 0.0 4.8 0.00 0.00 0.00 78 1012.2
20260905144521 21 29 0.0 8.0 0.00 0.00 0.00 76 1012.1
20260905144020 21 3 3.2 6.4 0.00 0.00 0.00 75 1012.1
20260905143520 21 10 3.2 4.8 0.00 0.00 0.00 78 1012.3
20260905143015 20 357 3.2 6.4 0.00 0.00 0.00 79 1012.1
20260905142513 20 352 3.2 4.8 0.00 0.00 0.00 82 1012.3
20260905142009 20 2 3.2 6.4 0.00 0.00 0.00 80 1012.4
20260905141503 21 50 0.0 6.4 0.00 0.00 0.00 78 1012.2
20260905141000 20 359 4.8 6.4 0.00 0.00 0.00 79 1012.0
20260905140455 20 23 4.8 6.4 0.00 0.00 0.00 82 1012.4
20260905135953 20 42 3.2 6.4 0.00 0.00 0.00 83 1012.5
20260905135449 20 47 1.6 6.4 0.00 0.00 0.00 82 1012.1
20260905134945 20 7 3.2 4.8 0.00 0.00 0.00 81 1012.1
20260905134443 20 353 3.2 6.4 0.00 0.00 0.00 84 1012.1
20260905133942 20 4 4.8 6.4 0.00 0.00 0.00 85 1012.0
20260905133438 20 358 3.2 8.0 0.00 0.00 0.00 86 1012.3
20260905132937 20 70 1.6 6.4 0.00 0.00 0.00 88 1012.0
20260905132432 18 4 1.6 6.4 0.00 0.00 0.00 92 1012.1
20260905131928 18 97 3.2 4.8 0.00 0.00 0.00 95 1012.1
20260905131424 17 33 3.2 3.2 0.00 0.00 0.00 99 1011.9
20260905130924 16 206 0.0 1.6 0.00 0.00 0.00 99 1012.3
20260905130423 16 97 3.2 4.8 0.00 0.00 0.00 99 1012.0
20260905125923 15 101 1.6 6.4 0.00 0.00 0.00 99 1012.4
20260905125418 15 89 1.6 3.2 0.00 0.00 0.00 99 1012.1
20260905124913 14 29 3.2 3.2 0.00 0.00 0.00 99 1012.5
20260905124410 14 85 1.6 3.2 0.00 0.00 0.00 99 1012.8
20260905123910 14 89 0.0 3.2 0.00 0.00 0.00 99 1012.6
20260905123407 13 98 3.2 4.8 0.00 0.00 0.00 99 1012.8
20260905122902 13 147 1.6 4.8 0.00 0.00 0.00 99 1013.0
20260905122401 13 27 3.2 4.8 0.00 0.00 0.00 99 1012.9
20260905121856 13 69 3.2 3.2 0.00 0.00 0.00 99 1012.8
20260905121353 13 39 1.6 3.2 0.00 0.00 0.00 99 1012.8
20260905120851 13 99 1.6 3.2 0.00 0.00 0.00 99 1012.8
20260905120346 13 85 4.8 4.8 0.00 0.00 0.00 99 1012.6
20260905115841 13 87 1.6 3.2 0.00 0.00 0.00 99 1012.5
20260905115340 13 81 3.2 4.8 0.00 0.00 0.00 99 1012.4
20260905114835 13 29 0.0 1.6 0.00 0.00 0.00 99 1012.2
20260905114334 13 66 3.2 3.2 0.00 0.00 0.00 99 1012.3
20260905113833 12 107 1.6 3.2 0.00 0.00 0.00 99 1012.1
20260905113329 12 55 0.0 1.6 0.00 0.00 0.00 99 1012.2
20260905112825 12 49 3.2 3.2 0.00 0.00 0.00 99 1012.0
20260905112319 12 27 3.2 3.2 0.00 0.00 0.00 99 1012.1
20260905111815 12 51 1.6 3.2 0.00 0.00 0.00 99 1012.2
20260905111315 12 82 3.2 3.2 0.00 0.00 0.00 99 1012.1
20260905110814 12 356 1.6 3.2 0.00 0.00 0.00 99 1012.0
20260905110308 12 22 3.2 3.2 0.00 0.00 0.00 99 1011.8
20260905105804 12 41 1.6 3.2 0.00 0.00 0.00 99 1012.0
20260905105306 12 68 3.2 4.8 0.00 0.00 0.00 99 1011.9
20260905104757 12 37 3.2 3.2 0.00 0.00 0.00 99 1012.0
20260905104254 12 39 3.2 3.2 0.00 0.00 0.00 99 1011.7
20260905103753 12 70 3.2 3.2 0.00 0.00 0.00 99 1011.7
20260905103249 12 56 3.2 4.8 0.00 0.00 0.00 99 1011.6
20260905102744 12 47 3.2 3.2 0.00 0.00 0.00 99 1011.8
20260905102241 12 53 3.2 3.2 0.00 0.00 0.00 99 1011.3
20260905101740 12 63 0.0 3.2 0.00 0.00 0.00 99 1011.6
20260905101238 12 77 0.0 1.6 0.00 0.00 0.00 99 1011.4
20260905100734 12 76 0.0 3.2 0.00 0.00 0.00 99 1011.5
20260905100230 12 30 3.2 3.2 0.00 0.00 0.00 99 1011.4
20260905095729 12 52 1.6 3.2 0.00 0.00 0.00 99 1011.4
20260905095229 12 89 1.6 3.2 0.00 0.00 0.00 99 1011.2
20260905094724 12 48 3.2 4.8 0.00 0.00 0.00 99 1011.3
20260905094219 12 53 1.6 3.2 0.00 0.00 0.00 99 1011.2
20260905093713 13 47 3.2 3.2 0.00 0.00 0.00 99 1010.9
20260905093209 13 62 3.2 3.2 0.00 0.00 0.00 99 1011.2
20260905092704 13 67 3.2 3.2 0.00 0.00 0.00 99 1011.2
20260905092200 13 50 3.2 3.2 0.00 0.00 0.00 99 1011.2
20260905091659 13 24 0.0 3.2 0.00 0.00 0.00 99 1011.3
20260905091153 13 50 0.0 3.2 0.00 0.00 0.00 99 1011.2
20260905090648 13 55 3.2 3.2 0.00 0.00 0.00 99 1011.2
20260905090144 13 76 3.2 3.2 0.00 0.00 0.00 99 1011.2
20260905085642 13 40 3.2 3.2 0.00 0.00 0.00 99 1011.5
20260905085137 13 41 1.6 3.2 0.00 0.00 0.00 99 1011.2
20260905084636 13 32 0.0 3.2 0.00 0.00 0.00 99 1011.2
20260905084131 13 76 0.0 3.2 0.00 0.00 0.00 99 1011.3
20260905083626 13 37 3.2 3.2 0.00 0.00 0.00 99 1011.5
20260905083123 13 86 1.6 3.2 0.00 0.00 0.00 99 1011.5
20260905082618 13 72 0.0 1.6 0.00 0.00 0.00 99 1011.5
20260905082114 13 49 0.0 1.6 0.00 0.00 0.00 99 1011.4
20260905081613 13 45 0.0 3.2 0.00 0.00 0.00 99 1011.7
20260905081108 13 34 0.0 3.2 0.00 0.00 0.00 99 1011.4
20260905080603 13 46 3.2 3.2 0.00 0.00 0.00 99 1011.4
20260905080057 13 30 3.2 3.2 0.00 0.00 0.00 99 1011.4
20260905075550 13 41 1.6 3.2 0.00 0.00 0.00 99 1011.6
20260905075045 13 75 1.6 3.2 0.00 0.00 0.00 99 1011.7
20260905074544 13 71 0.0 1.6 0.00 0.00 0.00 99 1011.6
20260905074040 13 22 0.0 1.6 0.00 0.00 0.00 99 1011.6
20260905073535 13 31 1.6 3.2 0.00 0.00 0.00 99 1011.6
20260905073031 13 39 0.0 3.2 0.00 0.00 0.00 99 1011.6
20260905072530 14 89 1.6 3.2 0.00 0.00 0.00 99 1011.4
20260905072026 14 40 0.0 1.6 0.00 0.00 0.00 99 1011.7
20260905071523 14 23 1.6 3.2 0.00 0.00 0.00 99 1011.7
20260905071023 14 34 1.6 3.2 0.00 0.00 0.00 99 1011.7
20260905070518 14 86 0.0 3.2 0.00 0.00 0.00 99 1011.7
20260905070014 14 27 1.6 3.2 0.00 0.00 0.00 99 1011.9
20260905065511 14 45 3.2 3.2 0.00 0.00 0.00 99 1011.8
20260905065007 14 65 1.6 4.8 0.00 0.00 0.00 99 1011.9
20260905064502 14 25 1.6 1.6 0.00 0.00 0.00 99 1011.8
20260905063956 14 68 1.6 4.8 0.00 0.00 0.00 99 1011.9
20260905063450 14 51 0.0 1.6 0.00 0.00 0.00 99 1011.8
20260905062947 14 63 0.0 3.2 0.00 0.00 0.00 99 1012.0
20260905062441 14 28 3.2 3.2 0.00 0.00 0.00 99 1012.1
20260905061937 14 45 3.2 3.2 0.00 0.00 0.00 99 1012.0
20260905061436 14 49 0.0 3.2 0.00 0.00 0.00 99 1012.1
20260905060935 14 44 1.6 3.2 0.00 0.00 0.00 99 1012.1
20260905060432 14 50 0.0 1.6 0.00 0.00 0.00 99 1012.1
20260905055931 14 50 0.0 1.6 0.00 0.00 0.00 99 1012.1
20260905055426 14 44 0.0 1.6 0.00 0.00 0.00 99 1012.2
20260905054925 14 57 1.6 3.2 0.00 0.00 0.00 99 1012.2
20260905054422 14 104 3.2 3.2 0.00 0.00 0.00 99 1012.2
20260905053921 14 52 3.2 3.2 0.00 0.00 0.00 99 1012.1
20260905053416 14 44 0.0 1.6 0.00 0.00 0.00 99 1012.4
20260905052912 14 35 0.0 3.2 0.00 0.00 0.00 99 1012.4
20260905052411 15 87 0.0 3.2 0.00 0.00 0.00 99 1012.3
20260905051911 15 44 0.0 3.2 0.00 0.00 0.00 99 1012.5
20260905051407 15 43 0.0 3.2 0.00 0.00 0.00 99 1012.5
20260905050904 15 39 0.0 1.6 0.00 0.00 0.00 99 1012.5
20260905050400 15 50 1.6 3.2 0.00 0.00 0.00 99 1012.5
20260905045855 15 74 3.2 3.2 0.00 0.00 0.00 99 1012.6
20260905045350 15 35 1.6 1.6 0.00 0.00 0.00 99 1012.4
20260905044845 15 13 0.0 1.6 0.00 0.00 0.00 99 1012.6
20260905044340 15 314 0.0 1.6 0.00 0.00 0.00 99 1012.6
20260905043839 15 40 0.0 1.6 0.00 0.00 0.00 99 1012.7
20260905043333 15 323 0.0 1.6 0.00 0.00 0.00 99 1012.7
20260905042828 15 293 0.0 1.6 0.00 0.00 0.00 99 1012.8
20260905042323 15 32 0.0 0.0 0.00 0.00 0.00 99 1012.6
20260905041818 16 60 0.0 0.0 0.00 0.00 0.00 99 1012.7
20260905041314 16 40 1.6 1.6 0.00 0.00 0.00 99 1012.6
20260905040808 16 326 0.0 1.6 0.00 0.00 0.00 99 1012.6
20260905040307 16 352 0.0 1.6 0.00 0.00 0.00 99 1012.6
20260905035802 16 326 0.0 1.6 0.00 0.43 0.43 99 1012.6
20260905035258 16 37 0.0 0.0 0.00 0.43 0.43 99 1012.6
20260905034755 16 35 1.6 3.2 0.00 0.43 0.43 99 1012.5
20260905034255 16 1 1.6 1.6 0.00 0.43 0.43 99 1012.6
20260905033753 16 45 1.6 3.2 0.00 0.43 0.43 99 1012.6
20260905033249 16 31 0.0 1.6 0.00 0.43 0.43 99 1012.4
20260905032748 16 0 0.0 1.6 0.00 0.43 0.43 98 1012.6
20260905032244 17 75 3.2 3.2 0.00 0.43 0.43 98 1012.4
20260905031739 17 42 1.6 1.6 0.00 0.43 0.43 98 1012.5
20260905031235 17 32 0.0 1.6 0.00 0.43 0.43 98 1012.3
20260905030734 17 35 0.0 1.6 0.00 0.43 0.43 98 1012.3
20260905030230 17 38 0.0 1.6 0.00 0.43 0.43 98 1012.5
20260905025724 17 25 1.6 1.6 0.00 0.43 0.43 98 1012.4
20260905025220 17 35 1.6 3.2 0.00 0.43 0.43 97 1012.3
20260905024715 17 43 1.6 3.2 0.00 0.43 0.43 97 1012.4
20260905024211 17 54 3.2 3.2 0.00 0.43 0.43 97 1012.5
20260905023706 17 37 0.0 1.6 0.00 0.43 0.43 97 1012.5
20260905023206 17 0 0.0 1.6 0.00 0.43 0.43 97 1012.4
20260905022705 18 50 1.6 1.6 0.00 0.43 0.43 96 1012.4
20260905022201 18 336 0.0 0.0 0.00 0.43 0.43 95 1012.3
20260905021655 18 309 0.0 0.0 0.00 0.43 0.43 95 1012.3
20260905021150 18 309 0.0 0.0 0.00 0.43 0.43 96 1012.4
20260905020645 18 309 0.0 0.0 0.00 0.43 0.43 96 1012.3
20260905020141 18 309 0.0 0.0 0.00 0.43 0.43 96 1012.3
20260905015639 18 50 0.0 1.6 0.00 0.43 0.43 97 1012.7
20260905015133 18 37 0.0 0.0 0.00 0.43 0.43 97 1012.7
20260905014627 18 13 0.0 1.6 0.00 0.43 0.43 97 1012.6
20260905014122 18 33 1.6 3.2 0.00 0.43 0.43 97 1012.7
20260905013619 18 62 1.6 3.2 0.00 0.43 0.43 97 1012.9